Home > Time Zones > World Clock > Weather > U.S.A. > Adak > Past weeks

Flag for U.S.A. Weather past 2 weeks in Adak, Alaska, U.S.A.

Now
34 °F

Mostly cloudy.


Feels Like: 31 °F
Forecast: 34 / 40 °F
Wind: 3 mph from West

Location: Adak

Current Time: Dec 22, 2014 at 3:37:43 AM

Latest Report: Dec 22, 2014 at 3:16 AM


Visibility: 10 mi

Pressure: 29.94 "Hg

Humidity: 81%

Dew point: 28 °F

Location of AdakLocation

Historic Weather in Adak — Graph

°F

Adak temperature yesterday

Maximum temperature yesterday: 39 °F (at 12:16 AM)
Minimum temperature yesterday: 32 °F (at 11:36 PM)
Average temperature yesterday: 37 °F

Past Weeks' High & Low Weather Summary

 TemperatureHumidityPressure
High41 °F (Dec 19, 3:16 PM)100% (Dec 15, 12:16 AM)29.97 "Hg (Dec 15, 12:16 AM)
Low18 °F (Dec 17, 8:56 PM)55% (Dec 17, 4:16 PM)28.57 "Hg (Dec 19, 3:36 AM)
Average35 °F82%29.16 "Hg
* Reported Dec 7 2:16 AM — Dec 22 2:36 AM, Adak, Weather by CustomWeather, © 2014

Note: Actual official high and low records may vary slightly from our data, if they occured in-between our weather recording intervals... More about our weather records

Advertising

Adak weather history for previous 24 hours

 ConditionsComfort  
Time TempWeatherWind HumidityBarometerVisibility
2:36 AM
Dec 22
32 °FOvercast.12 mph87%29.94 "Hg10 mi
2:16 AM30 °FOvercast.3 mph100%29.94 "Hg10 mi
1:56 AM30 °FOvercast.No wind93%29.94 "Hg10 mi
1:36 AM30 °FOvercast.5 mph86%29.94 "Hg10 mi
12:56 AM30 °FOvercast.No wind93%29.96 "Hg10 mi
12:36 AM30 °FOvercast.No wind93%29.97 "Hg10 mi
12:16 AM32 °FPassing clouds.3 mph87%29.97 "Hg10 mi
11:56 PM
Dec 21
32 °FClear.3 mph87%29.96 "Hg10 mi
11:36 PM32 °FClear.3 mph87%29.97 "Hg10 mi
11:16 PM34 °FClear.6 mph81%29.97 "Hg10 mi
10:56 PM34 °FPassing clouds.3 mph81%29.97 "Hg10 mi
10:36 PM36 °FPassing clouds.5 mph81%29.96 "Hg10 mi
10:16 PM36 °FOvercast.3 mph93%29.97 "Hg10 mi
9:56 PM34 °FOvercast.No wind87%29.96 "Hg10 mi
9:36 PM36 °FOvercast.No wind81%29.95 "Hg10 mi
9:16 PM34 °FOvercast.3 mph87%29.94 "Hg10 mi
8:56 PM34 °FOvercast.3 mph87%29.94 "Hg10 mi
8:36 PM36 °FOvercast.5 mph81%29.94 "Hg7 mi
8:16 PM36 °FMostly cloudy.8 mph81%29.93 "Hg10 mi
7:56 PM36 °FOvercast.6 mph87%29.92 "Hg10 mi
7:36 PM36 °FOvercast.No wind93%29.92 "Hg10 mi
7:16 PM36 °FMostly cloudy.No wind93%29.91 "Hg10 mi
6:56 PM36 °FMostly cloudy.5 mph87%29.91 "Hg10 mi
6:36 PM36 °FMostly cloudy.3 mph93%29.90 "Hg10 mi
6:16 PM34 °FMostly cloudy.10 mph87%29.89 "Hg10 mi
5:36 PM36 °FMostly cloudy.No wind87%29.88 "Hg3 mi
5:16 PM36 °FMostly cloudy.No wind93%29.88 "Hg9 mi
4:56 PM36 °FMostly cloudy.6 mph87%29.87 "Hg9 mi
4:36 PM37 °FMostly cloudy.5 mph87%29.86 "Hg10 mi
4:16 PM37 °FMostly cloudy.14 mph75%29.85 "Hg9 mi
3:56 PM37 °FMostly cloudy.9 mph75%29.84 "Hg10 mi
3:36 PM37 °FMostly cloudy.9 mph93%29.84 "Hg10 mi
3:16 PM37 °FMore clouds than sun.7 mph87%29.83 "Hg10 mi
2:56 PM37 °FMostly cloudy.10 mph87%29.82 "Hg8 mi
2:36 PM37 °FMostly cloudy.8 mph81%29.82 "Hg10 mi
2:16 PM37 °FMostly cloudy.No wind93%29.81 "Hg10 mi
1:56 PM39 °FCloudy.5 mph100%29.80 "Hg9 mi
1:36 PM37 °FBroken clouds.5 mph87%29.80 "Hg7 mi
1:16 PM37 °FMostly cloudy.8 mph93%29.80 "Hg10 mi
12:56 PM36 °FMostly cloudy.10 mph93%29.80 "Hg3 mi
12:36 PM37 °FCloudy.13 mph87%29.80 "Hg3 mi
12:16 PM37 °FMostly cloudy.9 mph87%29.79 "Hg10 mi
11:16 AM37 °FBroken clouds.14 mph81%29.77 "Hg10 mi
10:56 AM37 °FMostly cloudy.13 mph81%29.77 "Hg4 mi
10:36 AM37 °FCloudy.10 mph93%29.77 "Hg9 mi
10:16 AM37 °FCloudy.8 mph93%29.76 "Hg10 mi
9:56 AM37 °FCloudy.7 mph93%29.75 "Hg10 mi
9:36 AM37 °FCloudy.9 mph87%29.73 "Hg10 mi
9:16 AM37 °FMostly cloudy.5 mph87%29.72 "Hg10 mi
8:56 AM37 °FCloudy.15 mph93%29.70 "Hg6 mi
8:36 AM37 °FMostly cloudy.13 mph87%29.69 "Hg8 mi
8:16 AM37 °FOvercast.No wind93%29.68 "Hg10 mi
7:56 AM37 °FOvercast.8 mph93%29.66 "Hg10 mi
7:36 AM37 °FOvercast.8 mph93%29.65 "Hg6 mi
7:16 AM37 °FMostly cloudy.8 mph93%29.63 "Hg10 mi
6:56 AM37 °FPartly cloudy.13 mph93%29.62 "Hg10 mi
6:36 AM37 °FOvercast.14 mph93%29.60 "Hg10 mi
6:16 AM37 °FOvercast.14 mph87%29.59 "Hg10 mi
5:56 AM37 °FPartly cloudy.15 mph87%29.58 "Hg10 mi
5:36 AM37 °FMostly cloudy.16 mph93%29.57 "Hg10 mi
5:16 AM37 °FMostly cloudy.18 mph87%29.56 "Hg10 mi
4:56 AM37 °FOvercast.18 mph93%29.55 "Hg4 mi
4:36 AM37 °FMostly cloudy.21 mph87%29.54 "Hg9 mi
4:16 AM39 °FOvercast.14 mph87%29.53 "Hg7 mi
3:56 AM37 °FOvercast.18 mph93%29.52 "Hg5 mi
3:36 AM37 °FMostly cloudy.15 mph93%29.51 "Hg5 mi
3:16 AM37 °FMostly cloudy.18 mph87%29.49 "Hg8 mi
Weather by CustomWeather, © 2014

See weather overviewHow to use our weather pages